Regional Weather Roundup
Issued by NWS

Home | Current Version | Previous Version | Graphics & Text | Print | Product List | Glossary On
Versions: 1 2 3 4 5 6 7 8 9 10 11 12 13 14 15 16 17 18 19 20 21 22 23 24 25 26 27 28 29 30 31 32 33 34 35 36 37 38 39 40 41 42 43 44 45 46 47 48 49
000
ASUS45 KCYS 290410
RWRWY

WYOMING REGIONAL WEATHER ROUNDUP
NATIONAL WEATHER SERVICE CHEYENNE WY
1000 PM MDT FRI AUG 28 2015

NOTE:  "FAIR" INDICATES FEW OR NO CLOUDS BELOW 12,000 FEET
WITH NO SIGNIFICANT WEATHER AND/OR OBSTRUCTIONS TO VISIBILITY.

WYZ001-290500-
YELLOWSTONE NATIONAL PARK

CITY           SKY/WX    TMP DP  RH WIND       PRES   REMARKS
LK YELLOWSTONE   N/A     47  37  68 CALM      30.38R
W YELLOWSTONE  NOT AVBL

$$
WYZ002>013-054>058-071-098>099-290500-
NORTHERN WYOMING

CITY           SKY/WX    TMP DP  RH WIND       PRES   REMARKS
JACKSON        FAIR      55  48  76 NW3       30.26S
CODY           FAIR      70  39  32 CALM      30.14S
GREYBULL       FAIR      73  43  33 E14       30.05S
WORLAND        FAIR      72  39  30 SE9       30.08R
SHERIDAN       FAIR      61  48  62 S5        30.08F
BUFFALO        FAIR      68  42  38 W9        30.18S
GILLETTE       FAIR      59  47  64 SW5       30.13R
HULETT         FAIR      64  50  59 S8        30.14F HAZE
NEWCASTLE      FAIR      66  41  39 CALM      30.14R

$$
WYZ014>020-022>026-101>103-290500-
CENTRAL WYOMING

CITY           SKY/WX    TMP DP  RH WIND       PRES   REMARKS
BIG PINEY      FAIR      59  31  34 VRB5      30.33R
PINEDALE       FAIR      55  41  58 NW7       30.34R
DUBOIS         FAIR      61  34  36 CALM      30.34R
LANDER         FAIR      71  38  29 W13       30.18R
RIVERTON       FAIR      71  35  26 E7        30.19R
CASPER         FAIR      58  36  43 NE5       30.20R
DOUGLAS        FAIR      66  37  34 E9        30.21R

$$
WYZ021-027>030-104>119-290500-
SOUTHERN WYOMING

CITY           SKY/WX    TMP DP  RH WIND       PRES   REMARKS
EVANSTON       FAIR      67  34  29 E6        30.32R
KEMMERER       FAIR      63  32  31 N9        30.34R
FORT BRIDGER   CLEAR     72  32  23 CALM      30.35R
ROCK SPRINGS   FAIR      67  29  24 SE8       30.30R
DIXON          FAIR      61  35  36 NE10      30.34S
RAWLINS        FAIR      59  40  49 CALM      30.34R
SARATOGA       FAIR      55  45  67 S8        30.37R
LARAMIE        FAIR      55  41  59 S8        30.39R
CHEYENNE       FAIR      62  45  53 W7        30.31R
TORRINGTON     FAIR      65  49  56 E9        30.16R
PINE BLUFFS    FAIR      63  41  45 SE3       30.25S

$$



USA.gov is the U.S. government's official web portal to all federal, state and local government web resources and services.